[[{"header":{"parameterUnit":"m.s-1","parameterCategory":1,"la1":30.2991,"la2":30.254,"lo1":-89.0895,"lo2":-89.0444,"dy":0.0017,"dx":0.0017,"nx":28,"ny":28,"refTime":"2023-04-17T21:00:00:Z","depth":0,"parameterNumber":2,"parameterNumberName":"U-component_of_WINDS"},"data":[0,0,0,0,0,0,0,0,0,0,0,0,0,0,0,0,0,0,0,0,0,0,0,0,0,0,0,0,0,0,0,0,0,0,0,0,0,0,0,0,0,0,0,0,0,0,0,0,0,0,0,0,0,0,0,0,0,0,1.6169,1.6169,0,1.6185,1.6185,1.6185,1.6187,1.6187,1.6187,1.6187,1.6202,1.6203,1.6203,0,0,0,0,0,0,0,0,0,0,0,0,0,1.614,1.614,1.6169,1.6169,1.6169,1.6185,1.6185,1.6186,1.6187,1.6187,1.6187,1.6186,1.6202,1.6203,1.6203,0,0,0,0,0,0,0,0,0,0,0,0,0,1.6154,1.614,1.6169,1.6172,1.6172,1.6185,1.6185,1.6186,1.6187,1.6187,1.6187,1.6186,1.6202,1.6202,1.6203,1.6213,0,0,1.6206,1.6206,0,0,0,0,0,0,0,0,1.6153,1.6155,1.6171,1.6172,1.6172,1.6184,1.6181,1.6195,1.6187,1.6181,1.6187,1.6186,1.6196,1.6197,1.6201,1.6214,1.6215,1.6206,1.6206,1.6207,1.6207,0,0,0,0,0,0,0,1.6152,1.6154,1.6175,1.6172,1.6172,1.6173,1.6174,1.6183,1.619,1.6182,1.6182,1.6184,1.6196,1.62,1.6201,1.6215,1.6206,1.6207,1.6207,1.6208,1.6239,1.6239,0,0,0,0,0,0,1.615,1.6153,1.6175,1.6176,1.6162,1.6173,1.6175,1.618,1.619,1.6191,1.6184,1.6184,1.6199,1.62,1.6202,1.6215,1.6207,1.6208,1.6208,1.6239,1.6239,1.624,0,0,0,0,0,0,1.615,1.6152,1.6174,1.6165,1.6167,1.6174,1.618,1.6181,1.6185,1.6192,1.6193,1.6187,1.6199,1.6201,1.6211,1.6216,1.6208,1.6209,1.6238,1.6239,1.6239,1.6241,0,0,0,0,0,0,1.6149,1.6152,1.6156,1.6165,1.6168,1.6183,1.618,1.6181,1.6186,1.6186,1.6194,1.6196,1.6199,1.621,1.6212,1.6217,1.6209,1.6238,1.6239,1.6239,1.6241,1.6242,1.6243,0,0,0,0,0,1.6148,1.6155,1.6156,1.6158,1.6173,1.6183,1.6185,1.6189,1.6187,1.6191,1.6195,1.6195,1.6215,1.6211,1.6213,1.6218,1.6238,1.6238,1.6239,1.6241,1.6242,1.6243,0,0,0,0,0,0,1.6146,1.6156,1.6157,1.6168,1.6175,1.6183,1.6188,1.619,1.6197,1.6196,1.62,1.6202,1.6213,1.6217,1.6212,1.623,1.6226,1.6227,1.6226,1.6228,1.6229,1.6227,1.621,0,0,0,0,0,1.6147,1.6154,1.6163,1.6171,1.6175,1.6181,1.6186,1.6188,1.6195,1.6198,1.6204,1.621,1.6218,1.6223,1.6231,1.6242,1.6244,1.6247,1.6248,1.6248,1.6249,1.6257,1.6258,1.6242,1.6242,1.6242,0,0,1.6148,1.6155,1.6159,1.6171,1.6177,1.6185,1.6183,1.6192,1.6198,1.6199,1.621,1.6214,1.6222,1.6233,1.6238,1.6237,1.6255,1.6249,1.625,1.625,1.6257,1.6259,1.626,1.6242,1.6242,1.6242,0,0,1.6155,1.6161,1.6169,1.6175,1.6184,1.6189,1.6191,1.62,1.6203,1.6214,1.6215,1.6223,1.6236,1.6242,1.6247,1.6258,1.6259,1.6261,1.6265,1.6272,1.6273,1.6274,1.6279,1.628,1.6262,1.6262,1.6262,0,1.6156,1.6168,1.6173,1.6182,1.6187,1.619,1.6199,1.6204,1.6215,1.6219,1.6217,1.6235,1.624,1.6253,1.6257,1.626,1.6263,1.6259,1.6273,1.6274,1.6275,1.6279,1.6281,1.6262,1.6262,1.6262,1.6262,0,1.6169,1.6177,1.6183,1.6194,1.62,1.6209,1.6215,1.6221,1.6224,1.6229,1.624,1.6247,1.6257,1.626,1.6262,1.6274,1.6273,1.6272,1.6268,1.6277,1.6281,1.6283,1.6262,1.6262,1.6262,1.6262,0,0,1.6173,1.6189,1.6191,1.6196,1.6207,1.6214,1.6223,1.6234,1.6239,1.6247,1.6255,1.6267,1.6267,1.6272,1.6275,1.6281,1.6291,1.628,1.628,1.6282,1.6305,1.6305,1.6307,1.6292,1.6292,1.6292,1.6304,0,1.6182,1.6198,1.6204,1.6218,1.6226,1.623,1.6238,1.6246,1.6251,1.6259,1.6265,1.6274,1.6273,1.6276,1.6282,1.6288,1.6295,1.6288,1.6299,1.6299,1.6297,1.6309,1.6309,1.632,1.6306,1.6306,1.6306,0,1.6193,1.6202,1.6217,1.6229,1.6232,1.6239,1.625,1.6258,1.6267,1.6271,1.6278,1.6281,1.6291,1.6288,1.6302,1.6297,1.6302,1.6306,1.6306,1.6307,1.6303,1.631,1.6324,1.6325,1.6309,1.6309,1.6309,0,1.6195,1.6211,1.6223,1.6227,1.6241,1.6246,1.6252,1.6261,1.6267,1.6277,1.6281,1.6291,1.6296,1.6304,1.631,1.6307,1.6324,1.6321,1.6328,1.6327,1.633,1.633,1.6345,1.6334,1.6334,1.6334,1.6334,0,1.6204,1.6213,1.6224,1.6231,1.6242,1.6248,1.6259,1.6265,1.6273,1.6282,1.6286,1.6293,1.6301,1.631,1.6315,1.6326,1.6329,1.6332,1.6333,1.6331,1.6331,1.6334,1.6333,1.6335,1.6334,1.6334,1.6334,0,1.6208,1.6215,1.6228,1.6241,1.6244,1.6251,1.6262,1.6269,1.6275,1.6286,1.6289,1.6298,1.6309,1.6316,1.6329,1.6333,1.6345,1.6346,1.6342,1.6343,1.6349,1.6348,1.6366,1.6368,1.6356,1.6356,1.6356,0,1.6212,1.622,1.6233,1.624,1.6246,1.6255,1.6262,1.627,1.6277,1.6289,1.6295,1.6306,1.6316,1.6333,1.6341,1.6352,1.6353,1.6358,1.6354,1.6353,1.6353,1.6352,1.6353,1.6359,1.6359,1.6359,1.6359,0,1.622,1.6224,1.6234,1.6246,1.6254,1.6263,1.6272,1.6277,1.6287,1.6294,1.6306,1.6313,1.6328,1.6339,1.6351,1.6357,1.636,1.636,1.6362,1.636,1.6358,1.636,1.6344,1.636,1.6359,1.6359,1.6359,1.6359,1.6225,1.6232,1.6243,1.6254,1.6262,1.6271,1.6279,1.6286,1.6296,1.6309,1.6313,1.6326,1.6336,1.6352,1.6359,1.6369,1.6368,1.6371,1.6371,1.6372,1.6372,1.6357,1.6371,1.6371,1.6371,1.6371,1.6371,0,1.6233,1.6241,1.6251,1.6264,1.6273,1.6276,1.6287,1.6294,1.6305,1.6315,1.6325,1.6339,1.635,1.636,1.6372,1.6378,1.6379,1.6381,1.638,1.6382,1.6372,1.6369,1.6379,1.6379,1.6379,1.6379,1.6379,1.6379,1.6238,1.625,1.6256,1.6273,1.628,1.6293,1.6299,1.6308,1.6316,1.6331,1.6341,1.6348,1.6358,1.6371,1.6382,1.6384,1.6388,1.639,1.6392,1.6383,1.6382,1.6381,1.6378,1.639,1.639,1.6401,1.6401,1.6401]},{"header":{"parameterUnit":"m.s-1","parameterCategory":1,"la1":30.2991,"la2":30.254,"lo1":-89.0895,"lo2":-89.0444,"dy":0.0017,"dx":0.0017,"nx":28,"ny":28,"refTime":"2023-04-17T21:00:00:Z","depth":0,"parameterNumber":3,"parameterNumberName":"V-component_of_WINDS"},"data":[0,0,0,0,0,0,0,0,0,0,0,0,0,0,0,0,0,0,0,0,0,0,0,0,0,0,0,0,0,0,0,0,0,0,0,0,0,0,0,0,0,0,0,0,0,0,0,0,0,0,0,0,0,0,0,0,0,0,-2.5932,-2.5932,0,-2.5977,-2.5977,-2.5978,-2.5988,-2.5988,-2.5987,-2.5987,-2.6028,-2.6029,-2.6031,0,0,0,0,0,0,0,0,0,0,0,0,0,-2.5851,-2.5853,-2.5932,-2.5932,-2.5933,-2.5977,-2.5977,-2.5978,-2.5988,-2.5988,-2.5987,-2.5987,-2.6028,-2.6029,-2.6031,0,0,0,0,0,0,0,0,0,0,0,0,0,-2.589,-2.5853,-2.5932,-2.5944,-2.5945,-2.5977,-2.5977,-2.5978,-2.5988,-2.5988,-2.5987,-2.5987,-2.6027,-2.6029,-2.6031,-2.6053,0,0,-2.6037,-2.6038,0,0,0,0,0,0,0,0,-2.5888,-2.5893,-2.5941,-2.5943,-2.5945,-2.5977,-2.5964,-2.6003,-2.5988,-2.5972,-2.5987,-2.5987,-2.6011,-2.6014,-2.6024,-2.6055,-2.6057,-2.6038,-2.6039,-2.604,-2.604,0,0,0,0,0,0,0,-2.5885,-2.5891,-2.595,-2.5942,-2.5944,-2.5945,-2.595,-2.5972,-2.5993,-2.5973,-2.5974,-2.5979,-2.6012,-2.6022,-2.6025,-2.6057,-2.6038,-2.6039,-2.6041,-2.6042,-2.6111,-2.6111,0,0,0,0,0,0,-2.5881,-2.5889,-2.5948,-2.5951,-2.5915,-2.5947,-2.5953,-2.5967,-2.5993,-2.5997,-2.598,-2.598,-2.6018,-2.6022,-2.6026,-2.6055,-2.604,-2.6042,-2.6043,-2.611,-2.6111,-2.6112,0,0,0,0,0,0,-2.5879,-2.5886,-2.5946,-2.592,-2.5928,-2.5949,-2.5964,-2.5968,-2.5978,-2.5998,-2.6002,-2.5986,-2.6018,-2.6023,-2.6047,-2.6057,-2.6043,-2.6044,-2.611,-2.6111,-2.6111,-2.6112,0,0,0,0,0,0,-2.5877,-2.5886,-2.5895,-2.5921,-2.5929,-2.5968,-2.5965,-2.5969,-2.5982,-2.5982,-2.6005,-2.6008,-2.6018,-2.6044,-2.6049,-2.6059,-2.6046,-2.6109,-2.611,-2.6111,-2.6112,-2.6113,-2.6115,0,0,0,0,0,-2.5874,-2.5891,-2.5895,-2.5902,-2.5942,-2.5968,-2.5973,-2.5986,-2.5982,-2.5992,-2.6005,-2.6008,-2.6055,-2.6046,-2.6052,-2.6063,-2.6108,-2.611,-2.6111,-2.6111,-2.6113,-2.6115,0,0,0,0,0,0,-2.5864,-2.5895,-2.5899,-2.5926,-2.5945,-2.597,-2.5981,-2.5987,-2.6005,-2.6005,-2.6018,-2.6023,-2.6046,-2.6057,-2.6047,-2.6087,-2.6081,-2.6084,-2.6079,-2.6081,-2.6083,-2.608,-2.6048,0,0,0,0,0,-2.5865,-2.5885,-2.5911,-2.5932,-2.5941,-2.596,-2.5972,-2.598,-2.5999,-2.6007,-2.6022,-2.6039,-2.6058,-2.607,-2.6088,-2.6113,-2.6119,-2.6123,-2.6125,-2.6126,-2.6128,-2.6144,-2.6147,-2.6116,-2.6116,-2.6116,0,0,-2.5867,-2.5886,-2.5898,-2.593,-2.5946,-2.5966,-2.5966,-2.5987,-2.6002,-2.6009,-2.6034,-2.6046,-2.6066,-2.6091,-2.6102,-2.61,-2.6138,-2.6128,-2.6129,-2.613,-2.6146,-2.6149,-2.6152,-2.6117,-2.6117,-2.6117,0,0,-2.5881,-2.5897,-2.5918,-2.5934,-2.5959,-2.5972,-2.5977,-2.6002,-2.6011,-2.6036,-2.6043,-2.606,-2.6092,-2.6107,-2.6118,-2.6141,-2.6145,-2.6146,-2.6155,-2.617,-2.6172,-2.6175,-2.6184,-2.6187,-2.6149,-2.6149,-2.6149,0,-2.5879,-2.5912,-2.5927,-2.5949,-2.5963,-2.5974,-2.5994,-2.6009,-2.6037,-2.6046,-2.6044,-2.6086,-2.61,-2.613,-2.6136,-2.6145,-2.6151,-2.6144,-2.6171,-2.6173,-2.6176,-2.6185,-2.6189,-2.6149,-2.6149,-2.6149,-2.6149,0,-2.591,-2.5932,-2.5945,-2.5976,-2.5992,-2.6012,-2.6031,-2.6045,-2.6052,-2.6065,-2.6091,-2.6109,-2.6132,-2.614,-2.6146,-2.6171,-2.6169,-2.6169,-2.6164,-2.6179,-2.6188,-2.6191,-2.6149,-2.6149,-2.6149,-2.6149,0,0,-2.5917,-2.5958,-2.5963,-2.5978,-2.6007,-2.6024,-2.6046,-2.6071,-2.6084,-2.6103,-2.6122,-2.615,-2.6151,-2.6164,-2.6172,-2.6185,-2.6205,-2.6183,-2.6184,-2.6188,-2.6235,-2.6237,-2.6241,-2.6207,-2.6208,-2.6208,-2.6234,0,-2.5935,-2.5977,-2.5993,-2.6026,-2.6048,-2.6059,-2.6078,-2.6098,-2.6111,-2.613,-2.6144,-2.6164,-2.6163,-2.6171,-2.6185,-2.6199,-2.6214,-2.6198,-2.6225,-2.6225,-2.6221,-2.6245,-2.6246,-2.6269,-2.6238,-2.6238,-2.6239,0,-2.5962,-2.5986,-2.6023,-2.6052,-2.6061,-2.6079,-2.6104,-2.6123,-2.6145,-2.6154,-2.6171,-2.6179,-2.6202,-2.6195,-2.6227,-2.6216,-2.6227,-2.6236,-2.6238,-2.6241,-2.6234,-2.6251,-2.6277,-2.6281,-2.6244,-2.6244,-2.6243,0,-2.5966,-2.6006,-2.6034,-2.6047,-2.6081,-2.6093,-2.6108,-2.613,-2.6145,-2.6167,-2.6177,-2.62,-2.6213,-2.6231,-2.6245,-2.6238,-2.6276,-2.627,-2.6284,-2.6284,-2.6292,-2.6291,-2.6322,-2.6298,-2.6297,-2.6297,-2.6297,0,-2.5986,-2.6008,-2.6037,-2.6054,-2.608,-2.6098,-2.6122,-2.6137,-2.6157,-2.6177,-2.6187,-2.6205,-2.6223,-2.6243,-2.6254,-2.628,-2.6285,-2.6292,-2.6295,-2.6292,-2.6292,-2.6301,-2.63,-2.6298,-2.6298,-2.6298,-2.6298,0,-2.5994,-2.6014,-2.6046,-2.6077,-2.6086,-2.6103,-2.6129,-2.6146,-2.6161,-2.6186,-2.6193,-2.6215,-2.624,-2.6256,-2.6286,-2.6294,-2.6323,-2.6324,-2.6316,-2.6318,-2.6331,-2.633,-2.637,-2.6377,-2.6346,-2.6347,-2.6347,0,-2.6005,-2.6023,-2.6058,-2.6074,-2.6089,-2.6113,-2.613,-2.6148,-2.6165,-2.6194,-2.6207,-2.6233,-2.6255,-2.6294,-2.6312,-2.6336,-2.6339,-2.6351,-2.6343,-2.634,-2.6341,-2.6341,-2.6343,-2.6353,-2.6353,-2.6353,-2.6353,0,-2.6024,-2.6034,-2.6059,-2.6088,-2.6108,-2.6131,-2.6154,-2.6166,-2.6188,-2.6206,-2.6233,-2.625,-2.6284,-2.631,-2.6336,-2.635,-2.6356,-2.6356,-2.6361,-2.6359,-2.6354,-2.6359,-2.6321,-2.6355,-2.6355,-2.6355,-2.6355,-2.6355,-2.6035,-2.6053,-2.6081,-2.6109,-2.6129,-2.6151,-2.617,-2.6188,-2.6212,-2.6242,-2.6251,-2.628,-2.6304,-2.634,-2.6355,-2.6377,-2.6375,-2.6381,-2.6383,-2.6385,-2.6386,-2.635,-2.6381,-2.6381,-2.6381,-2.6381,-2.6381,0,-2.6056,-2.6076,-2.6101,-2.6135,-2.6157,-2.6163,-2.619,-2.6207,-2.6233,-2.6256,-2.6279,-2.6311,-2.6337,-2.6359,-2.6385,-2.6399,-2.6403,-2.6406,-2.6405,-2.6409,-2.6385,-2.6379,-2.6403,-2.6403,-2.6403,-2.6403,-2.6403,-2.6403,-2.6069,-2.6101,-2.6115,-2.6156,-2.6175,-2.6206,-2.6221,-2.6241,-2.626,-2.6297,-2.632,-2.6334,-2.6357,-2.6386,-2.641,-2.6416,-2.6426,-2.6428,-2.6435,-2.6412,-2.641,-2.6408,-2.6402,-2.643,-2.643,-2.6457,-2.6457,-2.6457]}]]